Stations météo

réclame
Mon MeteoGroup
Greifswalder Oie, Allemagne (10097): Température de l'air & dewpoint: 17.09.2018 04:00:00 - 23.09.2018 04:00:00 (CEST)Greifswalder Oie, Allemagne (10097): Température de l'air 5cm & Température de l'air -5cm: 17.09.2018 04:00:00 - 23.09.2018 04:00:00 (CEST)Greifswalder Oie, Allemagne (10097): Température de l'air -20cm & Température de l'air -100cm: 17.09.2018 04:00:00 - 23.09.2018 04:00:00 (CEST)Greifswalder Oie, Allemagne (10097): water temperature: 17.09.2018 04:00:00 - 23.09.2018 04:00:00 (CEST)Greifswalder Oie, Allemagne (10097): Vitesse du vent & gusts: 17.09.2018 04:00:00 - 23.09.2018 04:00:00 (CEST)Greifswalder Oie, Allemagne (10097): Direction du vent: 17.09.2018 04:00:00 - 23.09.2018 04:00:00 (CEST)Greifswalder Oie, Allemagne (10097): reduced air pressure: 17.09.2018 04:00:00 - 23.09.2018 04:00:00 (CEST)Greifswalder Oie, Allemagne (10097): visibility: 17.09.2018 04:00:00 - 23.09.2018 04:00:00 (CEST)Greifswalder Oie, Allemagne (10097): Ensoleillement: 17.09.2018 04:00:00 - 23.09.2018 04:00:00 (CEST)Greifswalder Oie, Allemagne (10097): Quantités de précipitations: 17.09.2018 04:00:00 - 23.09.2018 04:00:00 (CEST)
Date & Time tt [°C] td [°C] tt 5cm [°C] tt -5cm [°C] tt -20cm [°C] tt -100cm [°C] tw [°C] ff [km/h] ff [knt] fx [km/h] fx [knt] dd ppp [hPa] vv [km] sd [min] rr [mm]
23.09.2018 04:00:00 11,8 9,4 11,0 11,2 14,3 17,5 15,4 49 26 64 34 WSW 1012,0 32 0 0,0
23.09.2018 03:00:00 12,2 9,5 11,6 11,3 14,4 17,5 15,4 51 27 66 35 WSW 1012,0 38 0 0,0
23.09.2018 02:00:00 12,3 9,1 11,6 11,4 14,6 17,5 15,5 53 29 66 35 WSW 1012,2 40 0 0,0
23.09.2018 01:00:00 12,7 9,1 11,9 11,5 14,7 17,5 15,7 55 30 64 35 WSW 1012,0 41 0 0,0
23.09.2018 00:00:00 12,2 8,9 11,5 11,6 14,9 17,6 15,7 48 26 69 37 WSW 1012,4 46 0 0,0
22.09.2018 23:00:00 13,0 9,4 12,2 11,7 15,1 17,6 16,0 51 28 65 35 WSW 1012,3 39 0 0,0
22.09.2018 22:00:00 13,0 9,3 12,2 11,8 15,3 17,6 16,1 46 25 60 32 WSW 1012,4 51 0 0,0
22.09.2018 21:00:00 12,9 9,0 12,0 12,1 15,6 17,6 16,4 45 24 58 31 WSW 1012,4 51 0 0,0
22.09.2018 20:00:00 13,0 9,1 12,2 12,6 15,8 17,6 16,2 48 26 64 35 WSW 1012,3 61 0 0,0
22.09.2018 19:00:00 13,4 9,4 12,8 13,1 16,0 17,6 16,3 52 28 64 35 WSW 1012,5 64 31 0,0
22.09.2018 18:00:00 13,3 9,3 13,6 13,8 16,2 17,7 16,4 52 28 74 40 WSW 1012,6 45 6 0,2
22.09.2018 17:00:00 14,2 9,8 13,9 14,6 16,3 17,7 16,7 52 28 68 37 WSW 1013,0 43 7 0,0
22.09.2018 16:00:00 14,5 9,0 14,6 15,2 16,2 17,7 16,8 54 29 88 48 WSW 1012,9 20 2 0,0
22.09.2018 15:00:00 16,3 8,0 18,4 16,7 16,1 17,7 17,0 49 26 59 32 WSW 1012,5 21 45 0,0
22.09.2018 14:00:00 15,1 8,4 15,4 16,1 15,9 17,7 17,1 47 26 58 31 WSW 1012,9 35 23 0,0
22.09.2018 13:00:00 15,0 9,0 15,9 16,6 15,6 17,7 17,0 45 24 56 30 WSW 1013,1 10 49 0,0
22.09.2018 12:00:00 14,7 9,5 15,9 15,5 15,3 17,7 16,8 44 24 59 32 WSW 1013,3 10 58 0,0
22.09.2018 11:00:00 13,7 9,7 14,5 13,9 15,1 17,7 16,6 44 24 61 33 WSW 1013,1 9 59 0,0
22.09.2018 10:00:00 13,0 9,6 13,2 12,8 15,1 17,7 16,4 50 27 61 33 WSW 1012,4 8 58 0,0
22.09.2018 09:00:00 12,2 9,2 11,9 11,9 15,2 17,7 16,4 51 27 61 33 WSW 1011,7 25 41 0,0
22.09.2018 08:00:00 11,9 9,4 11,7 11,6 15,4 17,7 16,4 46 25 64 35 WSW 1010,9 27 6 0,0
22.09.2018 07:00:00 11,6 9,3 11,0 11,5 15,6 17,7 16,5 51 27 68 37 WSW 1010,1 44 0 0,0
22.09.2018 06:00:00 11,5 8,8 11,1 11,3 15,9 17,7 16,9 50 27 65 35 WSW 1009,7 59 0 0,0
22.09.2018 05:00:00 11,5 7,9 10,7 11,4 16,2 17,7 17,1 51 28 63 34 WSW 1009,3 70 0 0,0
22.09.2018 04:00:00 12,2 8,1 11,4 11,7 16,5 17,7 17,2 52 28 74 40 WSW 1008,7 70 0 0,0
22.09.2018 03:00:00 12,6 7,4 11,8 11,9 16,9 17,7 17,3 54 29 74 40 WSW 1008,0 70 0 0,0
22.09.2018 02:00:00 13,2 7,9 12,3 12,4 17,2 17,7 17,3 58 32 79 43 WSW 1007,4 70 0 0,0
22.09.2018 01:00:00 13,4 9,6 12,4 12,9 17,6 17,7 17,8 45 24 63 34 SW 1007,4 58 0 0,0
22.09.2018 00:00:00 14,0 9,4 13,1 13,3 18,1 17,7 17,8 49 27 71 38 WSW 1007,1 61 0 0,0
21.09.2018 23:00:00 14,3 9,5 13,5 13,9 18,5 17,7 18,3 50 27 72 39 WSW 1006,6 55 0 0,0
21.09.2018 22:00:00 15,0 9,8 14,0 14,7 18,9 17,7 18,2 53 28 77 42 W 1005,6 55 0 0,6
21.09.2018 21:00:00 14,7 12,5 13,9 15,5 19,3 17,7 18,3 45 24 55 30 WSW 1004,9 38 0 0,0
21.09.2018 20:00:00 14,9 12,0 13,9 15,8 19,8 17,7 18,4 38 20 57 31 WSW 1004,0 49 0 0,1
21.09.2018 19:00:00 14,9 12,3 13,8 16,4 20,4 17,7 18,6 42 23 65 35 W 1003,5 34 0 0,9
21.09.2018 18:00:00 15,6 13,8 14,6 17,4 20,9 17,7 19,0 49 26 82 45 W 1003,4 15 0 7,6
21.09.2018 17:00:00 14,8 12,9 14,1 21,2 21,0 17,7 19,1 69 38 106 57 WNW 1002,3 3,5 0 0,6
21.09.2018 16:00:00 25,3 13,3 25,1 23,9 20,8 17,7 19,6 48 26 72 39 SSW 998,8 20 2 0,0
21.09.2018 15:00:00 25,1 15,1 26,3 24,5 20,6 17,7 20,1 51 28 76 41 SSW 999,4 10 29 0,0
21.09.2018 14:00:00 24,7 15,2 26,9 24,6 20,2 17,7 19,8 29 16 46 25 S 1000,6 24 28 0,0
21.09.2018 13:00:00 23,6 15,7 27,0 24,2 19,7 17,7 19,6 23 12 37 20 S 1001,6 17 53 0,0
21.09.2018 12:00:00 22,6 15,7 25,6 22,7 19,3 17,7 19,2 20 11 35 19 S 1002,9 12 60 0,0
21.09.2018 11:00:00 21,3 14,9 23,4 20,7 19,1 17,7 18,8 19 11 36 19 S 1003,8 9 58 0,0
21.09.2018 10:00:00 20,0 14,1 21,5 19,3 19,0 17,7 18,7 22 12 35 19 S 1004,4 13 60 0,0
21.09.2018 09:00:00 19,4 13,5 19,6 18,1 19,1 17,6 18,4 20 11 37 20 S 1005,3 17 59 0,0
21.09.2018 08:00:00 18,7 13,6 18,0 17,7 19,2 17,6 18,5 19 11 31 17 S 1005,9 16 26 0,0
21.09.2018 07:00:00 19,1 13,9 17,7 17,6 19,4 17,6 18,7 21 11 32 18 S 1006,8 28 0 0,0
21.09.2018 06:00:00 19,1 15,0 17,5 17,8 19,5 17,6 18,6 18 10 29 16 S 1007,5 25 0 0,0
21.09.2018 05:00:00 18,9 15,2 17,0 18,0 19,7 17,6 18,8 13 7 24 13 SSE 1008,3 25 0 0,0
21.09.2018 04:00:00 19,0 15,5 17,4 18,1 19,9 17,6 19,0 12 7 23 12 S 1009,4 23 0 0,0
21.09.2018 03:00:00 18,5 15,4 16,4 18,4 20,1 17,6 19,1 9 5 19 10 S 1010,0 20 0 0,0
21.09.2018 02:00:00 18,9 15,3 17,4 18,7 20,2 17,6 19,2 13 7 22 12 S 1010,8 21 0 0,0
21.09.2018 01:00:00 19,3 15,2 17,7 19,0 20,5 17,6 19,3 17 9 23 12 S 1011,3 22 0 0,0
21.09.2018 00:00:00 19,5 14,9 18,0 19,3 20,7 17,6 19,5 17 9 22 12 S 1012,1 24 0 0,0
20.09.2018 23:00:00 19,5 15,3 17,9 19,7 20,9 17,6 19,5 14 7 19 10 S 1012,4 23 0 0,0
20.09.2018 22:00:00 19,7 16,0 18,0 20,2 21,1 17,6 19,5 10 5 16 9 S 1012,7 24 0 0,0
20.09.2018 21:00:00 20,6 15,3 18,9 20,9 21,3 17,6 19,9 11 6 20 11 S 1013,1 25 0 0,0
20.09.2018 20:00:00 22,3 13,6 20,7 21,8 21,5 17,6 20,4 14 8 21 11 S 1013,3 28 0 0,0
20.09.2018 19:00:00 22,5 13,9 22,0 23,0 21,5 17,6 20,6 17 9 20 11 S 1013,6 28 12 0,0
20.09.2018 18:00:00 22,1 14,6 22,3 23,8 21,5 17,6 19,8 11 6 19 11 SW 1014,1 33 0 0,0
20.09.2018 17:00:00 22,2 15,2 23,2 24,8 21,3 17,6 20,6 16 9 27 15 WSW 1014,2 32 14 0,0
20.09.2018 16:00:00 22,7 15,3 25,3 25,8 21,0 17,6 20,2 16 9 27 15 WSW 1014,5 28 36 0,0
20.09.2018 15:00:00 23,2 15,7 26,6 26,0 20,5 17,6 20,1 20 11 30 16 WSW 1014,9 14 60 0,0
20.09.2018 14:00:00 21,6 15,1 24,3 25,1 20,1 17,5 19,7 26 14 36 19 W 1015,3 9 58 0,0
20.09.2018 13:00:00 22,3 14,7 25,2 24,0 19,6 17,5 19,3 28 15 35 19 WSW 1015,5 10 60 0,0
20.09.2018 12:00:00 21,2 15,1 23,8 22,1 19,3 17,5 19,0 21 12 33 18 WSW 1015,8 15 60 0,0
20.09.2018 11:00:00 20,3 14,4 21,7 20,1 19,2 17,5 18,7 25 13 32 17 WSW 1016,3 16 60 0,0
20.09.2018 10:00:00 19,3 13,8 20,0 18,9 19,2 17,5 18,5 23 13 31 17 SW 1016,2 17 58 0,0
20.09.2018 09:00:00 18,6 13,5 18,7 18,0 19,3 17,5 18,4 26 14 33 18 SSW 1016,2 13 27 0,0
20.09.2018 08:00:00 18,2 14,1 17,4 18,0 19,4 17,5 18,4 25 13 29 16 SSW 1016,1 22 0 0,0
20.09.2018 07:00:00 18,2 14,2 17,3 18,1 19,6 17,5 18,6 22 12 27 15 SW 1015,6 18 0 0,0
20.09.2018 06:00:00 18,3 14,6 17,3 18,2 19,7 17,5 18,6 19 10 26 14 SW 1015,6 18 0 0,0
20.09.2018 05:00:00 18,8 14,3 17,7 18,5 19,9 17,5 18,8 22 12 26 14 SW 1015,5 19 0 0,0
20.09.2018 04:00:00 18,9 14,7 17,7 18,7 20,1 17,5 18,8 15 8 21 11 SSW 1015,5 19 0 0,0
20.09.2018 03:00:00 19,2 15,5 18,0 19,0 20,2 17,5 18,9 15 8 25 13 WSW 1015,3 18 0 0,0
20.09.2018 02:00:00 20,4 14,6 19,5 19,3 20,4 17,5 18,9 24 13 37 20 WSW 1015,2 22 0 0,0
20.09.2018 01:00:00 20,1 15,2 19,1 19,5 20,6 17,5 18,9 23 13 27 15 SSW 1014,7 21 0 0,0
20.09.2018 00:00:00 19,8 15,2 18,5 19,8 20,9 17,4 18,9 23 13 30 16 SSW 1014,9 20 0 0,0
19.09.2018 23:00:00 20,2 15,9 19,0 20,1 21,1 17,4 19,0 21 12 28 15 SSW 1014,9 21 0 0,0
19.09.2018 22:00:00 20,6 15,7 19,1 20,5 21,4 17,4 19,1 13 7 22 12 S 1015,0 24 0 0,0
19.09.2018 21:00:00 21,4 15,1 19,7 21,1 21,6 17,4 19,4 14 7 22 12 S 1015,0 27 0 0,0
19.09.2018 20:00:00 20,0 16,4 18,4 22,1 21,9 17,4 19,7 13 7 18 10 ESE 1015,2 23 0 0,0
19.09.2018 19:00:00 20,3 16,2 19,4 23,7 21,9 17,4 19,8 13 7 18 10 ESE 1015,1 23 49 0,0
19.09.2018 18:00:00 21,4 15,9 24,0 25,8 21,8 17,4 19,9 6 3 10 6 ESE 1015,5 25 60 0,0
19.09.2018 17:00:00 22,5 15,3 27,2 27,5 21,4 17,4 19,2 4 2 14 8 SE 1015,8 26 60 0,0
19.09.2018 16:00:00 23,6 14,6 27,6 27,9 20,9 17,4 19,1 4 2 9 5 W 1016,1 25 60 0,0
19.09.2018 15:00:00 23,1 13,5 27,8 27,2 20,3 17,4 19,1 3 2 11 6 NW 1016,6 22 60 0,0
19.09.2018 14:00:00 21,8 14,8 26,6 26,0 19,7 17,4 19,6 6 3 12 7 NNW 1016,8 14 60 0,0
19.09.2018 13:00:00 21,7 15,3 26,4 24,2 19,2 17,4 19,1 6 3 12 7 SSE 1016,7 20 60 0,0
19.09.2018 12:00:00 19,8 14,7 23,3 21,9 18,8 17,4 18,6 10 5 24 13 SW 1016,8 13 60 0,0
19.09.2018 11:00:00 19,0 14,8 21,1 19,8 18,7 17,4 18,3 18 10 29 16 SW 1017,0 13 60 0,0
19.09.2018 10:00:00 18,1 14,7 19,2 18,5 18,7 17,4 18,2 23 13 29 16 WSW 1016,7 13 60 0,0
19.09.2018 09:00:00 17,6 14,8 17,9 17,7 18,7 17,4 18,2 23 12 34 18 W 1016,3 9 60 0,0
19.09.2018 08:00:00 17,5 14,7 17,2 17,5 18,9 17,4 18,2 28 15 34 19 W 1015,9 17 39 0,0
19.09.2018 07:00:00 17,5 14,9 16,6 17,5 19,0 17,4 18,2 29 16 36 19 W 1015,4 19 0 0,0
19.09.2018 06:00:00 17,7 15,2 16,8 17,6 19,2 17,4 18,3 24 13 29 16 WSW 1015,0 18 0 0,0
19.09.2018 05:00:00 18,0 15,3 17,1 17,9 19,3 17,4 18,4 22 12 27 15 WSW 1014,7 19 0 0,0
19.09.2018 04:00:00 17,9 15,9 16,9 18,2 19,5 17,4 18,4 16 8 21 11 WSW 1014,2 16 0 0,0
19.09.2018 03:00:00 18,2 15,3 17,6 18,4 19,6 17,4 18,4 16 9 33 18 WNW 1013,7 22 0 0,0
19.09.2018 02:00:00 18,3 15,7 17,8 18,8 19,8 17,4 18,5 24 13 40 21 NNW 1013,4 20 0 0,0
19.09.2018 01:00:00 19,6 14,0 19,2 19,0 20,0 17,4 18,5 32 17 43 23 WNW 1012,8 30 0 0,0
19.09.2018 00:00:00 20,2 14,1 18,8 19,1 20,2 17,4 18,6 17 9 26 14 S 1011,6 28 0 0,0
18.09.2018 23:00:00 20,3 14,4 18,5 19,4 20,4 17,4 18,7 14 8 22 12 SSE 1011,6 27 0 0,0
18.09.2018 22:00:00 20,9 14,4 18,9 19,9 20,7 17,4 18,8 15 8 23 13 SSE 1011,9 28 0 0,0
18.09.2018 21:00:00 21,7 14,1 19,6 20,6 20,9 17,4 18,9 13 7 21 11 SSE 1012,0 31 0 0,0
18.09.2018 20:00:00 23,9 11,6 21,5 21,7 21,1 17,4 19,0 19 10 28 15 S 1011,9 33 9 0,0
18.09.2018 19:00:00 25,1 11,5 23,5 23,0 21,1 17,4 19,1 20 11 27 15 S 1011,6 29 60 0,0
18.09.2018 18:00:00 23,5 15,0 24,9 24,8 21,0 17,4 19,2 11 6 24 13 S 1011,8 38 60 0,0
18.09.2018 17:00:00 24,1 14,8 27,4 26,4 20,7 17,4 19,4 12 7 23 12 SSE 1011,9 32 60 0,0
18.09.2018 16:00:00 22,2 16,5 26,5 26,4 20,2 17,4 19,6 11 6 31 17 SE 1012,4 16 60 0,0
18.09.2018 15:00:00 22,6 15,3 26,9 26,2 19,6 17,4 19,2 19 11 32 17 SE 1013,1 22 60 0,0
18.09.2018 14:00:00 21,9 15,9 27,5 25,8 18,9 17,4 19,0 13 7 20 11 SE 1013,8 19 60 0,0
18.09.2018 13:00:00 21,7 15,3 26,4 24,0 18,3 17,3 18,6 14 8 22 12 SE 1014,6 15 60 0,0
18.09.2018 12:00:00 21,8 13,9 25,2 21,4 17,9 17,3 18,3 11 6 27 15 SSE 1015,2 17 60 0,0
18.09.2018 11:00:00 19,7 13,6 22,6 19,0 17,6 17,3 17,9 14 7 23 13 S 1015,4 16 60 0,0
18.09.2018 10:00:00 19,0 13,2 20,4 17,2 17,5 17,3 17,6 13 7 26 14 S 1015,8 17 60 0,0
18.09.2018 09:00:00 18,0 12,5 17,6 16,0 17,6 17,3 17,6 14 8 23 12 S 1015,8 26 60 0,0
18.09.2018 08:00:00 17,4 13,2 15,6 15,5 17,8 17,3 17,6 10 5 16 9 SSE 1015,9 26 5 0,0
18.09.2018 07:00:00 17,0 13,0 14,1 15,5 18,0 17,3 17,6 9 5 17 9 S 1015,8 36 0 0,0
18.09.2018 06:00:00 17,1 12,4 14,8 15,9 18,1 17,3 17,7 11 6 19 11 S 1016,0 36 0 0,0
18.09.2018 05:00:00 17,5 12,4 15,2 16,1 18,3 17,3 17,8 13 7 19 11 S 1016,2 36 0 0,0
18.09.2018 04:00:00 17,4 12,9 14,8 16,4 18,5 17,3 17,8 11 6 17 9 S 1016,3 33 0 0,0
18.09.2018 03:00:00 17,7 13,9 15,1 16,8 18,7 17,3 17,9 9 5 15 8 S 1016,6 32 0 0,0
18.09.2018 02:00:00 17,7 16,3 15,7 17,1 18,9 17,3 17,9 10 5 14 8 SE 1016,9 19 0 0,0
18.09.2018 01:00:00 17,7 15,6 15,8 17,4 19,1 17,3 18,0 11 6 15 8 ESE 1017,1 21 0 0,0
18.09.2018 00:00:00 17,7 15,4 15,9 17,6 19,3 17,3 17,9 12 7 15 8 E 1017,3 21 0 0,0
17.09.2018 23:00:00 17,7 15,4 16,1 17,9 19,5 17,3 18,0 12 7 16 8 E 1017,6 21 0 0,0
17.09.2018 22:00:00 17,4 15,1 15,4 18,3 19,8 17,3 18,0 11 6 14 8 E 1018,0 16 0 0,0
17.09.2018 21:00:00 17,7 14,6 15,8 19,0 20,0 17,3 18,1 11 6 16 8 E 1018,0 20 0 0,0
17.09.2018 20:00:00 17,8 14,9 16,0 20,0 20,2 17,3 18,0 12 6 19 11 E 1017,9 25 0 0,0
17.09.2018 19:00:00 18,6 14,4 17,8 21,4 20,3 17,3 18,3 13 7 18 10 ENE 1017,6 25 0 0,0
17.09.2018 18:00:00 19,7 14,2 20,2 22,9 20,2 17,3 18,4 11 6 17 9 NNE 1017,7 42 57 0,0
17.09.2018 17:00:00 21,7 12,5 23,3 24,2 20,0 17,3 18,3 13 7 18 10 W 1017,7 45 60 0,0
17.09.2018 16:00:00 21,9 14,2 23,3 24,8 19,6 17,3 18,3 15 8 22 12 WNW 1017,9 37 60 0,0
17.09.2018 15:00:00 21,0 13,4 25,3 24,9 19,0 17,4 18,4 15 8 23 12 W 1018,1 15 60 0,0
17.09.2018 14:00:00 20,7 13,5 25,2 24,0 18,5 17,4 18,4 13 7 25 13 W 1018,5 13 60 0,0
17.09.2018 13:00:00 20,6 12,7 25,1 22,5 18,0 17,4 18,1 17 9 22 12 W 1018,7 11 60 0,0
17.09.2018 12:00:00 19,9 12,5 22,0 20,6 17,6 17,4 17,8 18 10 23 12 SW 1018,9 16 60 0,0
17.09.2018 11:00:00 18,6 11,8 20,2 18,7 17,4 17,4 17,5 21 11 25 13 SW 1019,0 20 60 0,0
17.09.2018 10:00:00 17,5 10,7 18,4 17,3 17,4 17,4 17,3 22 12 30 16 SW 1018,6 25 58 0,0
17.09.2018 09:00:00 16,2 10,3 16,3 16,2 17,4 17,4 17,2 25 13 29 16 SW 1018,6 22 24 0,0
17.09.2018 08:00:00 16,0 10,8 16,1 15,8 17,5 17,4 17,2 24 13 29 16 SW 1018,5 28 3 0,0
17.09.2018 07:00:00 15,8 10,6 14,7 15,8 17,6 17,4 17,3 25 14 29 16 SW 1018,6 30 0 0,0
17.09.2018 06:00:00 16,1 10,7 15,0 16,0 17,8 17,4 17,4 25 14 35 19 SW 1018,5 31 0 0,0
17.09.2018 05:00:00 16,4 10,6 15,4 16,3 17,9 17,4 17,5 29 16 34 18 SSW 1018,1 34 0 0,0
17.09.2018 04:00:00 16,5 10,9 15,7 16,5 18,0 17,4 17,5 25 14 33 18 SSW 1018,4 32 0 0,0

tt = Température de l'air
td = dewpoint
tt 5cm = Température de l'air 5cm
tt -5cm = Température de l'air -5cm
tt -20cm = Température de l'air -20cm
tt -100cm = Température de l'air -100cm
tw = water temperature
ff = Vitesse du vent
fx = gusts
dd = Direction du vent
ppp = reduced air pressure
vv = visibility
sd = Ensoleillement
rr = Quantités de précipitations

stations d'obs. à proximité